Dewpoint
65 65 67 68 68 68 67 67 67 67 67 67 67 67 66 66 66 66 67 66 66 66 66 66 67 66 67 66 66 66 66 65 65 65 65 64 64 65 65 65 65 65 66 65 65 66 66 66 66 67 67 67 67 67 67 68 68 67 67 68 68 69 69 67 65 64 66 67 66 67 68 70 70 71 71 71 73 75 73 74 75 74 74 75 74
65 65 66 66 66 66 66 66 66 66 67 68 68 67 66 66 66 67 66 67 67 66 67 66 67 66 65 66 66 66 66 66 65 65 64 63 64 63 64 64 64 64 65 65 66 65 65 66 67 65 67 66 66 67 67 67 68 67 67 67 68 66 70 67 66 65 64 67 67 68 68 68 68 71 70 70 72 74 75 75 75 75 75 75 75
64 66 65 65 66 67 66 65 65 67 67 67 66 65 64 65 66 66 66 65 66 67 66 67 67 66 66 66 66 66 67 66 66 65 63 63 63 63 63 63 63 63 63 63 64 65 65 65 65 66 65 65 65 66 66 67 67 67 67 67 65 65 67 68 67 66 64 65 67 67 67 68 68 68 70 70 71 72 73 73 73 73 75 75 75
61 64 65 65 66 66 66 65 66 65 64 66 65 64 63 65 66 67 66 66 66 67 67 67 67 66 66 66 66 65 65 65 65 65 65 64 63 63 63 63 63 63 63 63 63 64 64 65 65 65 64 65 65 67 68 67 67 67 67 67 66 66 67 68 68 67 66 65 66 66 67 67 68 69 68 69 70 70 70 70 70 72 73 75 75
62 63 64 63 64 66 65 64 64 64 64 62 63 62 62 62 64 66 66 66 66 66 66 66 66 66 66 66 66 65 63 63 63 64 63 64 63 62 62 62 62 62 63 63 62 63 63 64 65 64 65 63 64 66 68 68 67 67 67 64 65 65 66 66 68 68 67 66 65 67 68 68 68 69 69 68 69 70 70 71 71 72 74 74 74
61 61 60 62 64 64 64 65 64 64 63 63 64 65 66 67 66 64 65 64 65 66 66 66 66 66 66 67 66 65 64 64 65 64 64 64 63 62 61 61 60 61 62 62 63 64 64 63 64 65 66 64 64 66 67 67 67 66 65 65 65 66 66 66 66 68 68 66 66 65 67 67 67 68 69 69 68 69 69 71 72 72 73 72 72
65 63 62 62 64 63 63 64 65 63 65 65 66 65 65 64 63 63 63 64 64 64 65 66 66 66 67 67 66 66 66 66 66 65 65 64 63 63 62 60 60 60 60 61 61 62 63 64 65 65 65 64 65 66 66 67 66 66 67 65 66 65 66 65 65 66 66 66 66 66 66 66 67 66 68 70 70 69 69 69 69 70 72 72 71
65 63 63 64 64 63 63 65 65 66 66 67 67 67 67 67 67 66 66 65 64 64 65 66 66 66 66 66 66 66 66 66 66 66 65 64 64 63 63 61 61 60 60 60 60 60 61 62 63 64 65 65 65 66 66 66 66 65 65 66 66 66 66 66 65 65 66 66 65 64 66 65 67 68 68 69 69 68 68 68 67 68 69 71 72
65 63 64 64 64 64 65 65 66 66 66 67 67 67 67 67 67 66 66 66 66 65 65 65 66 66 66 66 67 66 66 66 66 65 64 64 64 63 62 61 60 60 60 59 60 60 61 61 62 63 65 63 60 61 62 62 66 66 68 68 67 67 67 66 66 65 65 65 65 65 65 66 65 66 67 67 67 66 68 69 68 69 69 69 70
64 63 63 63 64 65 65 66 66 66 67 67 66 66 65 66 65 65 66 65 66 66 67 67 65 65 65 66 66 66 66 66 64 60 60 64 63 62 61 61 61 60 60 60 60 60 60 61 62 61 61 60 60 59 58 58 58 64 66 67 67 67 66 66 66 66 65 64 64 64 65 65 64 65 65 66 67 68 68 68 67 67 68 68 69
64 63 63 63 64 65 65 66 66 66 67 67 66 66 65 65 65 66 66 67 67 67 67 66 65 64 64 65 65 66 65 65 61 59 60 61 63 62 60 60 60 60 60 60 59 59 59 61 62 61 62 62 64 58 58 57 58 57 58 60 61 66 66 66 66 65 65 64 64 65 64 64 64 65 66 65 66 67 67 67 67 67 67 66 65
62 63 62 63 64 65 65 66 66 66 66 66 65 65 64 64 65 66 66 66 67 67 67 66 65 65 65 65 65 66 66 63 60 59 60 60 60 62 61 60 59 59 59 59 59 59 59 60 62 63 63 63 63 65 62 58 57 57 57 58 59 59 60 66 66 65 65 64 64 64 65 64 64 65 65 65 66 67 68 67 67 67 66 66 66
63 63 63 63 64 65 65 65 65 65 66 65 64 64 64 65 65 65 65 65 66 67 66 65 65 65 65 66 66 65 65 63 60 58 59 58 59 60 61 60 60 59 58 58 58 59 59 59 59 61 63 60 64 64 65 66 58 56 57 57 57 58 59 60 60 66 65 65 64 64 65 65 65 65 66 66 67 67 67 66 67 67 67 67 67
63 62 63 63 64 65 65 65 64 65 65 65 64 64 64 65 65 65 65 66 66 66 66 66 66 66 66 66 66 66 66 63 60 58 56 56 57 59 61 60 59 59 59 59 59 60 59 59 60 60 61 62 63 64 65 65 66 65 62 62 63 61 57 58 58 58 62 64 65 64 65 66 65 66 67 68 67 67 66 65 67 67 67 67 69
63 63 62 63 64 64 64 64 64 64 64 64 64 64 65 65 65 64 65 65 65 65 65 65 65 65 65 65 65 65 65 61 58 56 55 54 54 57 62 60 61 61 60 60 59 59 58 59 59 58 58 59 60 57 57 60 65 65 65 64 63 64 64 63 63 63 64 64 64 65 65 66 67 67 68 69 68 68 68 68 68 68 68 68 69
62 63 62 63 63 63 63 63 64 64 63 64 64 64 64 65 64 65 65 64 65 65 65 65 64 64 64 65 65 64 63 60 58 56 54 54 54 61 61 61 60 60 60 60 60 60 60 60 58 56 57 58 55 52 53 56 60 64 66 66 65 64 64 60 61 62 64 65 64 63 64 64 62 67 68 67 68 69 68 69 70 70 69 68 67
62 63 62 62 63 63 63 63 63 64 63 63 63 62 62 63 64 65 64 63 63 64 64 63 64 64 64 64 64 63 62 62 58 55 54 53 55 62 62 61 60 60 59 60 61 61 60 60 58 58 56 57 54 52 53 52 58 62 64 64 65 64 64 65 60 59 59 59 59 60 60 60 60 61 61 61 67 67 68 67 67 67 66 66 66
62 63 63 63 64 64 64 63 63 63 63 62 61 60 60 63 64 64 63 61 60 60 61 62 64 64 63 62 60 60 60 61 57 53 53 55 53 62 62 61 59 60 60 60 60 60 60 59 59 59 57 56 53 51 52 55 59 62 63 64 64 65 65 65 64 63 58 58 59 60 60 60 61 61 61 61 61 63 68 65 66 65 65 66 65
63 63 63 64 64 64 63 64 63 62 63 62 61 60 61 62 62 63 62 61 61 63 63 63 63 62 59 60 63 61 59 59 58 54 54 54 58 62 62 60 59 59 60 60 61 61 60 60 59 58 55 53 51 51 51 52 58 61 62 64 64 64 65 66 65 64 63 63 64 64 65 62 64 66 66 60 61 64 68 67 65 65 66 64 64
65 64 64 63 63 63 63 64 64 64 64 63 63 62 62 61 60 59 60 59 58 58 61 62 62 60 58 61 59 61 61 61 64 57 54 54 53 59 62 61 60 59 60 60 60 60 60 60 59 55 53 51 50 50 49 50 56 60 59 60 63 65 67 67 66 65 64 64 64 65 65 66 66 67 67 66 65 67 67 66 65 67 64 64 64
64 64 64 63 63 63 64 64 64 64 64 63 62 61 62 60 60 61 57 57 59 61 60 60 59 61 59 60 60 60 59 59 62 59 55 53 53 54 61 61 61 60 60 60 60 60 60 60 60 56 52 50 49 49 49 50 52 59 58 57 58 59 63 67 66 61 65 65 65 65 66 66 66 66 68 67 66 66 67 67 69 67 66 65 63
64 64 64 64 64 63 64 65 65 64 65 64 63 62 62 62 60 60 58 59 60 60 61 60 59 60 60 60 61 62 62 62 62 61 57 53 52 52 57 62 62 61 60 61 61 61 60 60 60 57 52 50 49 48 49 50 52 58 55 51 52 56 63 67 67 66 66 65 65 65 65 65 66 66 67 67 67 67 67 68 68 67 67 66 65
64 64 64 64 64 64 65 65 65 65 64 63 62 61 61 61 62 62 61 60 60 59 59 59 58 56 57 58 61 62 63 63 61 63 57 53 50 50 51 54 55 58 61 61 61 61 61 60 60 56 51 48 47 49 50 51 53 54 49 52 53 56 62 66 66 66 67 66 65 65 65 65 65 66 66 66 67 68 68 67 67 68 69 68 69
64 64 64 65 65 65 64 64 66 65 64 64 62 61 60 60 61 62 61 59 58 57 57 58 58 55 54 54 58 60 62 63 62 59 59 54 50 49 49 50 51 58 60 62 62 62 61 60 58 51 47 46 47 50 52 53 56 50 51 53 55 57 62 63 65 66 65 65 64 64 65 66 66 66 66 67 67 68 68 69 69 69 70 71 71
64 64 64 64 65 64 63 64 64 63 61 62 60 59 58 59 59 61 61 59 58 58 57 56 57 56 56 56 57 58 60 62 62 61 57 55 53 50 50 51 53 52 60 62 62 61 56 51 49 49 50 50 51 54 56 56 53 52 53 55 58 60 60 60 61 62 64 64 64 65 65 66 67 67 68 68 69 68 67 68 68 69 71 70 68
63 63 63 63 63 62 62 62 64 61 60 60 60 60 58 56 57 59 59 57 58 58 57 55 55 55 55 54 56 56 59 61 62 60 58 57 55 53 52 53 55 54 56 60 56 55 54 53 53 54 55 57 60 61 61 61 56 56 56 57 61 60 60 59 60 59 59 60 62 62 63 66 66 67 68 68 67 67 67 66 67 67 68 67 65
62 63 63 62 62 62 62 60 59 59 59 58 58 58 58 57 58 58 58 56 56 56 55 55 54 54 54 54 55 57 58 58 59 56 54 54 54 54 55 56 55 55 60 61 58 60 61 60 60 55 55 56 58 58 58 60 62 61 61 61 61 61 60 59 59 59 59 59 60 61 62 63 64 64 65 65 65 66 68 68 68 67 67 67 66
61 62 61 60 60 62 62 62 60 55 55 54 51 53 54 54 56 58 56 56 56 55 55 55 55 54 53 54 55 55 56 56 55 51 49 49 49 50 51 53 54 55 57 57 56 58 60 58 60 63 63 62 63 63 63 62 62 62 62 62 61 62 61 59 59 61 61 60 60 61 60 61 61 62 63 63 64 65 67 67 67 65 66 66 65
62 61 59 59 59 62 61 61 59 55 55 58 58 60 56 55 58 57 56 56 55 55 56 54 53 52 53 54 53 54 54 53 52 47 47 44 45 47 49 50 49 50 51 48 51 58 60 58 58 56 58 60 61 61 61 61 62 62 61 61 62 61 61 60 59 58 60 59 59 58 58 60 60 61 61 62 62 64 65 65 65 65 65 65 64
59 55 56 55 52 53 56 55 56 57 52 55 56 59 54 46 55 56 53 49 47 45 46 52 50 51 52 54 53 51 50 50 47 42 41 40 40 40 40 39 39 44 45 46 47 55 57 56 55 55 56 57 58 59 60 60 61 62 62 60 62 62 61 60 60 59 60 60 60 59 59 59 60 60 60 60 61 62 62 62 63 64 63 63 61
57 55 56 53 55 56 54 53 57 60 58 57 57 55 54 53 44 46 49 49 45 41 42 43 44 46 51 52 51 49 48 45 42 42 41 41 39 39 39 39 40 41 42 50 57 56 55 55 55 55 56 54 55 56 58 60 60 61 61 62 62 61 61 61 61 61 60 60 60 60 60 60 60 60 59 60 60 61 62 63 64 63 62 62 60
58 57 56 56 60 60 58 58 58 57 57 58 58 56 57 54 53 43 43 45 44 42 41 41 41 41 43 45 48 51 47 44 42 42 42 42 41 40 40 42 44 44 45 43 59 57 56 55 54 54 54 53 54 56 56 57 59 60 61 61 61 61 61 61 61 62 61 61 61 60 60 60 60 59 60 59 59 60 61 62 62 62 61 60 60
55 55 57 59 59 60 58 59 59 58 57 57 57 57 56 56 53 53 50 41 43 43 42 42 42 42 42 41 40 41 41 42 42 42 42 42 41 41 39 43 43 44 48 53 54 52 52 51 50 50 50 51 51 53 55 55 58 59 59 60 60 61 61 61 63 63 62 61 61 61 61 60 60 59 59 60 60 60 61 61 61 61 60 60 60
59 58 57 58 60 60 59 59 58 58 59 59 60 57 60 58 60 56 54 54 53 47 42 43 43 44 44 42 41 41 42 42 42 42 42 42 42 42 41 55 45 43 46 50 48 48 48 47 47 47 47 47 48 48 49 51 53 54 56 58 59 60 61 62 62 62 61 62 62 61 61 62 61 61 60 60 61 60 60 60 61 60 60 60 60
60 59 60 60 58 58 57 59 58 58 60 60 60 59 59 60 57 56 55 54 53 53 52 54 46 43 48 46 42 42 42 42 42 41 41 42 42 42 47 53 50 49 48 48 47 46 46 45 44 45 44 44 45 46 46 47 48 49 50 50 51 52 54 54 58 60 61 61 61 61 61 61 61 61 61 61 60 60 59 60 60 60 59 59 59
57 57 58 58 57 59 59 59 61 61 60 60 59 58 57 55 54 55 52 53 53 52 51 51 52 48 46 44 43 42 42 42 42 41 41 41 41 43 49 48 47 47 46 46 45 45 44 44 43 43 43 43 43 43 44 44 45 46 47 47 47 47 48 48 50 52 55 59 60 59 58 60 60 60 61 61 60 60 60 60 59 59 60 59 59
59 59 60 59 61 60 60 61 60 60 58 57 56 56 57 56 56 55 52 51 51 50 50 51 51 51 49 50 48 45 43 43 43 42 41 41 41 46 47 47 46 46 46 44 44 43 42 42 42 42 42 42 42 41 42 42 43 44 44 45 45 44 45 46 46 49 48 49 52 56 58 58 59 60 60 59 59 59 59 60 60 59 60 59 58
60 60 60 60 60 59 59 59 58 57 58 58 58 57 56 55 54 53 51 50 49 48 48 49 49 47 47 48 50 50 49 46 45 44 43 42 45 46 46 46 46 44 43 42 43 42 41 40 40 40 40 39 39 39 39 41 41 42 42 43 43 43 43 44 46 47 47 46 48 51 52 54 56 57 58 59 59 59 59 59 60 60 60 59 60
59 58 57 57 58 59 59 58 57 57 57 56 55 55 54 53 52 51 50 49 48 47 47 47 46 46 46 47 48 50 50 48 48 48 46 45 45 44 44 44 43 42 41 40 40 40 39 38 39 38 38 38 38 38 38 38 39 40 42 41 41 41 41 41 42 44 44 45 46 48 50 51 52 55 58 59 59 58 59 59 58 57 59 59 59
59 58 57 57 58 58 58 58 57 56 56 55 55 56 54 52 51 50 49 48 47 47 46 46 45 45 45 46 46 48 47 47 47 47 46 44 43 42 41 40 40 40 40 39 38 37 37 37 37 37 38 38 38 37 36 37 37 38 39 39 39 40 40 40 41 41 42 44 45 46 47 49 51 53 54 55 56 58 58 59 59 58 57 58 58
58 57 57 56 56 56 55 55 55 56 56 57 55 53 52 52 51 50 49 48 46 46 46 45 45 44 43 43 41 43 46 46 46 46 45 43 42 41 41 39 38 38 38 37 37 37 37 36 37 36 36 37 37 37 36 35 35 35 36 37 37 38 38 39 40 40 41 43 45 45 46 47 49 49 50 51 50 54 58 58 58 58 58 56 55
56 56 55 55 54 55 55 55 55 55 54 53 52 51 51 51 50 50 49 48 47 45 44 44 44 44 42 41 40 40 44 45 46 45 44 42 42 41 40 39 39 39 37 37 37 37 36 37 35 35 35 35 35 36 36 35 34 34 34 35 35 35 36 36 37 38 39 41 44 45 46 47 47 48 49 47 51 51 52 53 55 56 56 55 54
55 54 54 53 53 55 54 54 53 52 51 51 50 51 50 50 49 48 48 47 45 44 44 43 43 44 42 41 42 42 43 44 46 44 43 41 39 39 38 37 37 37 37 37 37 37 36 36 35 33 33 33 34 34 33 33 34 33 33 34 35 35 34 35 35 36 37 39 41 43 45 46 47 47 47 47 48 49 50 51 52 53 55 57 57
54 53 54 54 53 53 53 52 51 51 50 50 49 49 48 48 47 47 46 46 45 44 43 43 42 42 42 42 42 42 42 42 42 42 42 41 39 38 37 37 36 36 36 36 36 36 35 35 34 34 35 33 33 34 33 33 33 32 32 32 33 34 33 34 34 35 35 37 39 41 42 44 46 47 47 47 47 47 48 49 49 50 52 54 55
51 50 50 50 50 50 49 49 48 48 48 47 46 46 46 45 45 45 45 44 44 43 42 42 41 41 41 42 42 41 41 41 42 42 41 40 40 39 39 38 36 36 35 36 36 35 34 34 34 35 34 33 33 33 32 33 33 32 31 31 31 32 32 33 34 35 36 37 38 39 41 41 42 44 45 46 47 47 48 48 49 48 48 49 51
51 49 48 47 48 46 46 46 47 46 46 44 43 43 42 43 43 43 43 43 43 42 40 40 40 40 40 40 40 41 40 41 41 41 41 40 40 39 37 35 35 36 35 35 35 34 34 33 33 33 33 34 33 32 32 33 32 32 32 31 31 31 31 32 33 35 36 37 37 39 40 40 41 42 45 44 45 45 46 46 47 49 49 49 49
47 45 45 46 44 45 45 46 45 44 44 43 42 41 41 42 42 42 43 41 40 40 38 37 36 36 36 37 36 37 37 37 38 38 39 40 40 38 37 35 33 32 31 32 34 32 33 33 33 34 34 34 33 33 32 31 32 31 32 31 31 31 31 33 33 34 35 36 38 38 38 39 39 41 42 42 43 43 44 44 46 46 47 48 49
45 44 44 45 44 43 44 44 44 44 42 42 41 41 40 40 40 40 39 38 38 37 37 37 36 36 36 35 35 35 36 35 36 36 35 36 37 38 38 36 33 31 31 31 31 32 32 32 33 32 33 33 33 32 33 31 31 30 30 30 30 31 31 33 33 33 34 36 37 38 39 37 38 39 40 40 41 41 43 43 44 45 45 46 46
44 43 43 43 42 42 41 41 41 40 40 40 40 40 39 38 37 38 37 36 36 36 36 35 35 35 35 36 35 34 34 34 34 35 33 34 35 37 36 35 34 33 31 30 30 32 33 33 33 32 32 32 33 32 31 31 31 30 29 29 30 31 30 31 31 32 33 35 35 35 36 36 36 38 39 40 39 40 40 41 42 43 43 44 44
44 44 43 43 42 41 41 39 38 37 38 37 37 37 38 38 36 36 35 36 36 36 35 36 35 34 34 34 34 34 34 33 32 32 32 33 32 33 32 32 33 32 30 31 30 32 31 32 32 31 32 32 32 32 30 30 30 29 29 28 29 29 29 31 31 32 32 34 34 34 35 35 35 36 37 38 39 38 38 39 40 41 42 42 43
43 43 43 42 41 40 39 38 37 37 36 36 35 36 36 36 36 36 35 36 35 35 35 34 34 33 32 32 33 32 33 33 31 30 31 30 31 30 30 30 30 32 31 31 30 30 31 31 29 30 30 30 32 31 30 30 31 30 28 28 28 29 30 31 30 31 32 33 34 33 33 34 35 35 35 36 36 36 37 37 38 38 40 41 42